{"data":{"norad_id":87237,"intl_designator":"","name":"UNKNOWN","alt_names":[],"object_type":"UNKNOWN","status":"UNKNOWN","operator":null,"country":null,"launch_date":null,"launch_site_code":null,"launch_vehicle":null,"mission":null,"orbit_class":"UNKNOWN","rcs_meters":null,"size_class":null,"mass_kg":null,"dimensions":null,"purposes":[],"wikipedia_slug":null,"has_3d_model":false,"image_url":null,"decayed_at":null,"tle_current":{"epoch":"2026-05-23T03:08:23.960832Z","epoch_age_seconds":246623,"freshness":"STALE","line1":"1 87237U          26143.13083288  .00000210  00000+0  19161-3 0  9999","line2":"2 87237  99.2314 203.0830 0103011 207.0314 181.5229 13.91899912634212","mean_motion":13.91899912,"eccentricity":0.0103011,"inclination_deg":99.2314,"raan_deg":203.083,"arg_perigee_deg":207.0314,"mean_anomaly_deg":181.5229,"bstar":0.00019161,"rev_number":63421,"period_min":103.45571456578,"perigee_km":846.78102642067,"apogee_km":997.17950232473,"semimajor_km":7300.1172643727,"source":"CELESTRAK","updated_at":"2026-05-25T13:38:11.665123Z"}}}